Погода в Виннице

Погода в Виннице : погода сейчас, прогноз погоды и архив. Всё, что Вы хотите узнать о погоде в Виннице!

Хотите узнать прогноз погоды в Виннице? Тогда Вам сюда: Погода в Виннице

Поиск расширенной информации на нашем сайте:

Другие новости

Новости СМИ2

Главная страница сайта

Новости сайта

03.07.2017

Напоминаем, что на нашем специализированном сайте Метеоцентр.Азия вы можете получить высокодетализированные автоматические прогнозы погоды по пунктам России, СНГ и мира в авиационном формате (включающие направление и скорость ветра, видимость, явления погоды, количество и форму облачности, нижнюю и верхнюю границу облачности).


Погода в Виннице - сегодня

Время (UTC), дата Ветер
(°,м/с) 
Видим.   Явления Облачность Т
(°С)
Тd
(°С)
f(%) Тe
(°С)
Pmin
(гПа)
dP
(гПа)
Po
(мм)
O2
(г/м3)
Тmin Tmax R s Состояние
почвы
12 08.12.17 230 (ЮЗ) 13000 м    3/0 верхняя 
[Ci fib]
+6.4 -0.7 60 +5  1012.8  -1.8  733  288           
15 08.12.17 180 (Ю) 13000 м    ясно 
+2.8 -0.2 81 +1  1012.9  -0.3  732  292           
18 08.12.17 200 (Ю) 13000 м    ясно 
+1 -0.4 90 1012.7  -0.5  732  294    +6.7       
21 08.12.17 200 (Ю) 13000 м    ясно 
+1 -1 86 -1  1012.5  -0.2  732  294           
00 09.12.17 170 (Ю) 13000 м    ясно 
+0.8 -1.5 85 -1  1011  -1.4  731  294           
03 09.12.17 220 (ЮЗ) 13000 м    3/0 средняя 
[Ac trans]
+0.8 -1.5 85 1010.4  -0.6  730  294           
06 09.12.17 170 (Ю) 13000 м    6/0 средняя 
[Ac trans]
+0 -1.8 88 -1  1009.4  -1.1  730  294  -0.1         
09 09.12.17 130 (ЮВ) 13000 м    5/0 средняя 
[Ac trans]
+2.9 -1 75 +1  1008.3  -0.7  729  291           
12 09.12.17 120 (ЮВ) 13000 м    8/0 средняя 
[Ac trans]
+3.7 -0.3 75 +1  1006.8  -1.3  728  289           
15 09.12.17 100 (В) 13000 м    8/0 средняя 
[Ac trans]
+1.5 -0.7 85 -2  1005.6  -1.4  727  291           
18 09.12.17 130 (ЮВ) 0300 м  туман  ?/?  
+0.2 +0.2 100 -2  1005.4  -0.4  727  292    +4.2       
21 09.12.17 140 (ЮВ) 0400 м  туман  ?/?  
+0.4 +0.4 100 -1  1004.1  -1.2  726  292           
00 10.12.17 140 (ЮВ) 1500 м  в посл. час туман  10/10 120 м 
[St]
+0.6 +0.3 98 1003.4  -0.7  725  291           
03 10.12.17 200 (Ю) 1100 м  слаб. ливневой снег  10/10 100 м кучево-дожд. 
[Cb cap]
+0.2 -0.1 98 -1  1003  -0.4  725  292           
06 10.12.17 330 (СЗ) 1000 м  ливневой дождь со снегом  10/10 100 м кучево-дожд. 
[Cb cap]
+0 -0.3 98 -4  1003.6  0.5  725  292  +0       
09 10.12.17 320 (СЗ) 1200 м  снег{ливн. осадки}  10/8 60 м средняя 
[Frnb|As op]
-0.7 -1.4 95 -4  1004.6  0.9  726  293           
12 10.12.17 310 (СЗ) 1100 м  снег{ливн. осадки}  10/9 60 м средняя 
[Frnb|As op]
-1.9 -2.7 94 -6  1004.4  -0.4  726  295           
15 10.12.17 320 (СЗ) 9000 м  позёмок{снег}  10/10 150 м 
[St]
-2 -3.5 89 -6  1004.6  0.2  726  295           
18 10.12.17 290 (З) 13000 м  позёмок{снег}  10/10 300 м 
[St]
-1.3 -3.3 86 -5  1006.1  1.6  727  295    +0     
21 10.12.17 260 (З) 13000 м    ясно 
-2.6 -5.2 82 -5  1008.2  1.8  728  297           
00 11.12.17 200 (Ю) 13000 м    10/4 600 м средняя 
[Sc|Ac und]
-5.6 -7.4 87 -8  1009.8  1.1  729  301           
03 11.12.17 190 (Ю) 13000 м    10/6 720 м средняя 
[Sc|Ac und]
-5.4 -7.5 85 -8  1009  -0.7  729  300           
06 11.12.17 210 (ЮЗ) 13000 м    8/3 600 м средняя 
[Sc|Ac trans]
-4.3 -7.4 79 -8  1009.3  0.4  729  299  -6      13  равномерный
сухой снег
100% 
09 11.12.17 190 (Ю) 13000 м    10/0 средняя 
[Ac As]
-1.9 -6 74 -5  1009.2  0.3  729  296           
12 11.12.17 180 (Ю) 13000 м    8/5 750 м кучево-дожд., средняя 
[Cb cap|Ac trans]
+0.2 -4.2 72 -2  1009  729  294           
Время (UTC), дата Ветер
(°,м/с) 
Видим.   Явления Облачность Т
(°С)
Тd
(°С)
f(%) Тe
(°С)
Pmin
(гПа)
dP
(гПа)
Po
(мм)
O2
(г/м3)
Тmin Tmax R s Состояние
почвы

Для получения пояснительной информации подведите курсор к названию столбца.

ПОГОДА в Виннице - архив

Всё, что Вы хотите узнать о погоде в Виннице - удобно и подробно!

Выберите нужную дату (начиная с 1 января 2015* года) и нажмите кнопку "Найти".
Будут отображены архивные сводки погоды по пункту Винница, начиная с указанной даты.


Отображать данные в формате CSV (для использования в таблицах Excel)


Внимание! Наш архив погоды предназначен исключительно для личного некоммерческого использования в познавательных целях. Если Вам необходимы официальные справки о состоянии погоды (для производственных, юридических, коммерческих и т.п. целей), обращайтесь в органы Росгидромета.

*Примечание: данная дата относится к архиву по метеостанциям СССР (Россия, СНГ, Балтия).
Архив по метеостанциям Зарубежной Европы и Азии (кроме Китая) хранится 10 дней, по другим регионам земного шара (Китай, Африка, Америка, Австралия, Океания) - 1 день.

Винница - район местоположения метеостанции


Название, широта, долгота, высота метеостанции:
Винница 49.2°ш. 28.6°д. 298 м над ур. моря [Украина]

Дополнительная информация

В oтличие oт бoльшинства пoгoдных сайтoв мы публикуем пoдрoбную метеoинфoрмацию в детальнoм прoфессиoнальнoм фoрмате.

Характеристики температуры и влажнoсти вoздуха измеряются на высoте 2 м в тени вдали oт зданий и деревьев.
Скoрoсть ветра измеряется на высoте 10 м (на урoвне рoста челoвека скoрoсть ветра ниже в 1.5-2 раза). Если метеoстанция нахoдится в гoрoде или в лесу, тo скoрoсть ветра занижена на 2-4 м/с пo сравнению с oткрытым местoм. Скoрoсть ветра над акватoриями крупных рек и oзёр, а также на вершинах хoлмoв на 2-5 м/с выше, чем в oбычных услoвиях.
Атмoсфернoе давление в разных тoчках местнoсти мoжет значительнo oтличаться oт давления на метеoстанции, в зависимoсти oт услoвий рельефа (при пoдъёме на 10 м давление пoнижается примернo на 1 мм рт.ст.).